CW6451 Weather Reports


Display with metric or nautical units.
time (UTC)temp
F
wind
direction
speed
MPH
gust
MPH
rain 1hr
in
rain 24hr
in
rain mn
in
humidity
%
barometer
mb
20171121232827 54 167 6.0 11.0 0.00 0.00 0.00 78 1017.0
20171121232341 54 198 6.0 16.0 0.00 0.00 0.00 78 1017.1
20171121231836 54 169 6.0 12.0 0.00 0.00 0.00 78 1017.0
20171121231338 54 147 4.0 11.0 0.00 0.00 0.00 77 1016.9
20171121230837 54 113 7.0 13.0 0.00 0.00 0.00 76 1017.0
20171121230345 54 197 5.0 13.0 0.00 0.00 0.00 76 1017.0
20171121225842 54 165 6.0 11.0 0.00 0.00 0.00 75 1016.9
20171121225330 54 122 6.0 11.0 0.00 0.00 0.00 75 1016.7
20171121224835 54 143 5.0 11.0 0.00 0.00 0.00 75 1016.8
20171121224328 54 158 6.0 11.0 0.00 0.00 0.00 75 1016.9
20171121223845 54 183 4.0 13.0 0.00 0.00 0.00 76 1017.0
20171121223332 54 145 5.0 15.0 0.00 0.00 0.00 75 1017.0
20171121222824 54 136 6.0 15.0 0.00 0.00 0.00 75 1017.0
20171121222345 54 148 3.0 14.0 0.00 0.00 0.00 74 1017.0
20171121221834 54 177 6.0 17.0 0.00 0.00 0.00 73 1016.9
20171121221336 54 191 5.0 13.0 0.00 0.00 0.00 73 1016.9
20171121220841 54 171 6.0 15.0 0.00 0.00 0.00 73 1017.0
20171121220332 54 177 3.0 15.0 0.00 0.00 0.00 73 1016.9
20171121215822 54 198 7.0 20.0 0.00 0.00 0.00 73 1016.9
20171121215335 54 170 6.0 19.0 0.00 0.00 0.00 72 1017.0
20171121214840 54 161 6.0 19.0 0.00 0.00 0.00 72 1017.0
20171121214334 54 190 10.0 16.0 0.00 0.00 0.00 72 1016.9
20171121213828 54 129 8.0 16.0 0.00 0.00 0.00 72 1016.8
20171121213333 54 163 9.0 15.0 0.00 0.00 0.00 72 1016.9
20171121212841 54 180 9.0 21.0 0.00 0.00 0.00 71 1017.0
20171121212339 54 190 7.0 21.0 0.00 0.00 0.00 72 1017.1
20171121211844 54 141 9.0 20.0 0.00 0.00 0.00 72 1017.1
20171121211333 54 178 4.0 16.0 0.00 0.00 0.00 73 1017.2
20171121210828 54 171 8.0 20.0 0.00 0.00 0.00 72 1017.2
20171121210336 55 180 6.0 20.0 0.00 0.00 0.00 71 1017.2
20171121205847 55 159 10.0 20.0 0.00 0.00 0.00 69 1017.3
20171121205340 55 196 10.0 20.0 0.00 0.00 0.00 69 1017.3
20171121204823 55 211 7.0 21.0 0.00 0.00 0.00 69 1017.3
20171121204339 55 147 12.0 21.0 0.00 0.00 0.00 69 1017.3
20171121203822 56 165 10.0 20.0 0.00 0.00 0.00 68 1017.4
20171121203341 56 123 9.0 20.0 0.00 0.00 0.00 67 1017.4
20171121202825 56 182 11.0 22.0 0.00 0.00 0.00 66 1017.4
20171121202332 56 171 10.0 22.0 0.00 0.00 0.00 65 1017.4
20171121201830 56 185 10.0 22.0 0.00 0.00 0.00 65 1017.4
20171121201335 57 136 10.0 18.0 0.00 0.00 0.00 66 1017.4
20171121200830 57 181 9.0 18.0 0.00 0.00 0.00 66 1017.3
20171121200329 57 181 9.0 17.0 0.00 0.00 0.00 66 1017.2
20171121195838 57 187 10.0 22.0 0.00 0.00 0.00 65 1017.2
20171121195327 57 180 11.0 22.0 0.00 0.00 0.00 64 1017.3
20171121194832 56 184 9.0 21.0 0.00 0.00 0.00 66 1017.2
20171121194324 56 177 11.0 22.0 0.00 0.00 0.00 65 1017.2
20171121193839 56 155 13.0 25.0 0.00 0.00 0.00 64 1017.2
20171121193338 56 142 11.0 25.0 0.00 0.00 0.00 66 1017.2
20171121192839 56 160 11.0 24.0 0.00 0.00 0.00 66 1017.2
20171121192346 56 190 12.0 24.0 0.00 0.00 0.00 66 1017.1
20171121191826 56 175 10.0 22.0 0.00 0.00 0.00 66 1017.1
20171121191326 56 198 10.0 24.0 0.00 0.00 0.00 64 1017.2
20171121190838 57 188 13.0 24.0 0.00 0.00 0.00 61 1017.4
20171121190333 57 199 8.0 22.0 0.00 0.00 0.00 63 1017.3
20171121185838 57 206 11.0 24.0 0.00 0.00 0.00 62 1017.3
20171121185328 57 196 13.0 24.0 0.00 0.00 0.00 62 1017.3
20171121184829 57 178 9.0 22.0 0.00 0.00 0.00 61 1017.3
20171121184338 57 198 11.0 24.0 0.00 0.00 0.00 63 1017.4
20171121183847 57 127 10.0 24.0 0.00 0.00 0.00 63 1017.4
20171121183325 57 152 9.0 23.0 0.00 0.00 0.00 62 1017.4
20171121182832 57 167 9.0 23.0 0.00 0.00 0.00 61 1017.5
20171121182327 57 180 11.0 22.0 0.00 0.00 0.00 61 1017.6
20171121181841 57 176 8.0 21.0 0.00 0.00 0.00 63 1017.7
20171121181329 57 170 12.0 21.0 0.00 0.00 0.00 60 1017.8
20171121180844 57 171 12.0 24.0 0.00 0.00 0.00 59 1017.8
20171121180342 57 182 10.0 22.0 0.00 0.00 0.00 61 1017.9
20171121175826 57 183 13.0 21.0 0.00 0.00 0.00 62 1018.0
20171121175339 58 178 8.0 20.0 0.00 0.00 0.00 62 1018.1
20171121174824 57 170 11.0 20.0 0.00 0.00 0.00 60 1018.2
20171121174337 57 176 12.0 23.0 0.00 0.00 0.00 59 1018.2
20171121173830 57 176 10.0 24.0 0.00 0.00 0.00 62 1018.1
20171121173324 57 178 10.0 24.0 0.00 0.00 0.00 62 1018.4
20171121172839 57 148 12.0 22.0 0.00 0.00 0.00 61 1018.4
20171121172326 57 134 12.0 22.0 0.00 0.00 0.00 60 1018.5
20171121171830 57 171 9.0 20.0 0.00 0.00 0.00 62 1018.5
20171121171344 57 190 11.0 25.0 0.00 0.00 0.00 60 1018.5
20171121170832 57 192 13.0 25.0 0.00 0.00 0.00 57 1018.5
20171121170337 57 188 12.0 23.0 0.00 0.00 0.00 57 1018.6
20171121165841 57 215 10.0 21.0 0.00 0.00 0.00 58 1018.7
20171121165333 57 191 10.0 21.0 0.00 0.00 0.00 60 1018.8
20171121164834 57 196 10.0 22.0 0.00 0.00 0.00 60 1018.9
20171121164343 57 198 8.0 22.0 0.00 0.00 0.00 60 1019.0
20171121163826 57 158 11.0 23.0 0.00 0.00 0.00 58 1019.0
20171121163331 57 173 11.0 23.0 0.00 0.00 0.00 58 1019.1
20171121162839 57 150 13.0 27.0 0.00 0.00 0.00 59 1019.1
20171121162337 56 184 9.0 18.0 0.00 0.00 0.00 61 1019.2
20171121161825 56 165 12.0 21.0 0.00 0.00 0.00 59 1019.2
20171121161332 57 183 8.0 19.0 0.00 0.00 0.00 59 1019.2
20171121160842 57 177 8.0 23.0 0.00 0.00 0.00 59 1019.4
20171121160334 56 178 9.0 23.0 0.00 0.00 0.00 59 1019.5
20171121155846 56 234 8.0 16.0 0.00 0.00 0.00 61 1019.7
20171121155334 56 163 5.0 15.0 0.00 0.00 0.00 62 1019.7
20171121154833 56 192 8.0 14.0 0.00 0.00 0.00 62 1019.9
20171121154332 56 144 5.0 15.0 0.00 0.00 0.00 62 1020.1
20171121153847 56 197 6.0 11.0 0.00 0.00 0.00 62 1020.2
20171121153341 56 155 5.0 16.0 0.00 0.00 0.00 63 1020.3
20171121152842 56 201 8.0 19.0 0.00 0.00 0.00 62 1020.3
20171121152330 55 172 8.0 19.0 0.00 0.00 0.00 62 1020.5
20171121151822 55 153 5.0 16.0 0.00 0.00 0.00 62 1020.4
20171121151328 55 185 1.0 16.0 0.00 0.00 0.00 62 1020.5
20171121150834 55 186 9.0 17.0 0.00 0.00 0.00 61 1020.5
20171121150328 55 188 8.0 14.0 0.00 0.00 0.00 61 1020.5
20171121145825 55 186 8.0 14.0 0.00 0.00 0.00 61 1020.5
20171121145338 54 191 8.0 20.0 0.00 0.00 0.00 61 1020.6
20171121144846 54 193 8.0 24.0 0.00 0.00 0.00 61 1020.5
20171121144324 54 196 10.0 24.0 0.00 0.00 0.00 61 1020.5
20171121143839 54 161 10.0 19.0 0.00 0.00 0.00 61 1020.5
20171121143332 54 180 9.0 19.0 0.00 0.00 0.00 62 1020.6
20171121142837 53 153 8.0 19.0 0.00 0.00 0.00 62 1020.6
20171121142325 53 175 9.0 15.0 0.00 0.00 0.00 64 1020.6
20171121141828 53 133 8.0 16.0 0.00 0.00 0.00 65 1020.5
20171121141328 52 160 7.0 20.0 0.00 0.00 0.00 66 1020.5
20171121140829 52 200 8.0 20.0 0.00 0.00 0.00 66 1020.6
20171121140336 52 180 8.0 16.0 0.00 0.00 0.00 66 1020.5
20171121135827 52 176 7.0 16.0 0.00 0.00 0.00 66 1020.5
20171121135332 52 188 4.0 15.0 0.00 0.00 0.00 66 1020.5
20171121134825 52 162 8.0 15.0 0.00 0.00 0.00 66 1020.6
20171121134330 51 197 8.0 13.0 0.00 0.00 0.00 66 1020.6
20171121133831 51 178 6.0 17.0 0.00 0.00 0.00 66 1020.7
20171121133346 51 177 6.0 17.0 0.00 0.00 0.00 66 1020.5
20171121132841 51 165 8.0 17.0 0.00 0.00 0.00 66 1020.6
20171121132334 51 189 5.0 15.0 0.00 0.00 0.00 66 1020.6
20171121131827 50 213 5.0 15.0 0.00 0.00 0.00 65 1020.6
20171121131327 50 178 6.0 15.0 0.00 0.00 0.00 66 1020.6
20171121130836 50 184 5.0 16.0 0.00 0.00 0.00 66 1020.5
20171121130323 50 214 6.0 16.0 0.00 0.00 0.00 66 1020.5
20171121125823 49 171 7.0 14.0 0.00 0.00 0.00 66 1020.5
20171121125331 49 210 6.0 14.0 0.00 0.00 0.00 67 1020.4
20171121124842 49 161 5.0 11.0 0.00 0.00 0.00 68 1020.3
20171121124337 49 198 4.0 18.0 0.00 0.00 0.00 68 1020.2
20171121123835 48 177 7.0 18.0 0.00 0.00 0.00 68 1020.2
20171121123343 48 206 6.0 14.0 0.00 0.00 0.00 69 1020.1
20171121122843 48 175 5.0 14.0 0.00 0.00 0.00 70 1020.1
20171121122330 48 191 4.0 10.0 0.00 0.00 0.00 69 1020.1
20171121121830 48 196 4.0 13.0 0.00 0.00 0.00 69 1020.0
20171121121335 47 178 4.0 15.0 0.00 0.00 0.00 69 1020.0
20171121120839 47 209 5.0 10.0 0.00 0.00 0.00 69 1019.9
20171121120336 47 240 5.0 10.0 0.00 0.00 0.00 69 1019.9
20171121115836 47 221 2.0 10.0 0.00 0.00 0.00 68 1019.8
20171121115341 47 160 0.0 11.0 0.00 0.00 0.00 68 1019.8
20171121114833 47 169 4.0 11.0 0.00 0.00 0.00 67 1019.8
20171121114331 47 194 1.0 13.0 0.00 0.00 0.00 67 1019.7
20171121113831 47 171 5.0 13.0 0.00 0.00 0.00 66 1019.6
20171121113339 47 203 4.0 17.0 0.00 0.00 0.00 66 1019.6
20171121112835 47 213 9.0 17.0 0.00 0.00 0.00 65 1019.6
20171121112323 47 200 8.0 16.0 0.00 0.00 0.00 65 1019.6
20171121111829 47 232 4.0 16.0 0.00 0.00 0.00 65 1019.6
20171121111346 47 165 4.0 19.0 0.00 0.00 0.00 64 1019.6
20171121110834 47 177 7.0 19.0 0.00 0.00 0.00 64 1019.6
20171121110341 47 174 6.0 14.0 0.00 0.00 0.00 64 1019.6
20171121105837 46 166 5.0 12.0 0.00 0.00 0.00 63 1019.7
20171121105330 46 215 4.0 18.0 0.00 0.00 0.00 63 1019.6
20171121104828 46 226 2.0 18.0 0.00 0.00 0.00 63 1019.6
20171121104336 46 165 8.0 14.0 0.00 0.00 0.00 63 1019.5
20171121103830 46 182 6.0 14.0 0.00 0.00 0.00 63 1019.5
20171121103323 46 186 5.0 14.0 0.00 0.00 0.00 65 1019.4
20171121102824 46 179 6.0 14.0 0.00 0.00 0.00 65 1019.4
20171121102338 46 177 5.0 10.0 0.00 0.00 0.00 66 1019.2
20171121101838 46 173 2.0 10.0 0.00 0.00 0.00 66 1019.2
20171121101331 46 176 4.0 12.0 0.00 0.00 0.00 66 1019.2
20171121100835 46 190 5.0 12.0 0.00 0.00 0.00 67 1019.2
20171121100342 45 175 6.0 10.0 0.00 0.00 0.00 67 1019.3
20171121095827 45 177 1.0 12.0 0.00 0.00 0.00 68 1019.3
20171121095332 45 178 1.0 12.0 0.00 0.00 0.00 68 1019.3
20171121094825 45 194 6.0 12.0 0.00 0.00 0.00 68 1019.3
20171121094334 45 167 5.0 13.0 0.00 0.00 0.00 68 1019.4
20171121093839 45 175 5.0 13.0 0.00 0.00 0.00 69 1019.4
20171121093341 45 160 2.0 12.0 0.00 0.00 0.00 69 1019.4
20171121092834 45 175 3.0 10.0 0.00 0.00 0.00 69 1019.4
20171121092338 45 215 3.0 10.0 0.00 0.00 0.00 69 1019.4
20171121091846 45 165 4.0 11.0 0.00 0.00 0.00 69 1019.4
20171121091327 45 96 5.0 9.0 0.00 0.00 0.00 70 1019.4
20171121090827 45 187 2.0 9.0 0.00 0.00 0.00 71 1019.3
20171121090341 45 159 3.0 12.0 0.00 0.00 0.00 71 1019.3
20171121085827 44 178 3.0 10.0 0.00 0.00 0.00 72 1019.3
20171121085345 44 188 7.0 10.0 0.00 0.00 0.00 72 1019.2
20171121084831 44 167 2.0 10.0 0.00 0.00 0.00 72 1019.3
20171121084324 44 183 3.0 9.0 0.00 0.00 0.00 73 1019.1
20171121083839 44 177 3.0 8.0 0.00 0.00 0.00 73 1019.1
20171121083343 44 192 3.0 9.0 0.00 0.00 0.00 73 1019.2
20171121082827 44 192 4.0 9.0 0.00 0.00 0.00 74 1019.3
20171121082328 44 179 3.0 8.0 0.00 0.00 0.00 75 1019.3
20171121081841 43 173 3.0 7.0 0.00 0.00 0.00 75 1019.3
20171121081338 43 209 1.0 8.0 0.00 0.00 0.00 75 1019.3
20171121080832 43 197 3.0 9.0 0.00 0.00 0.00 75 1019.4
20171121080335 43 191 5.0 10.0 0.00 0.00 0.00 74 1019.4
20171121075832 43 150 2.0 6.0 0.00 0.00 0.00 73 1019.4
20171121075325 43 169 4.0 6.0 0.00 0.00 0.00 71 1019.5
20171121074838 43 178 1.0 5.0 0.00 0.00 0.00 70 1019.4
20171121074323 43 169 1.0 8.0 0.00 0.00 0.00 69 1019.4
20171121073839 43 177 3.0 8.0 0.00 0.00 0.00 69 1019.5
20171121073331 43 184 2.0 5.0 0.00 0.00 0.00 68 1019.5
20171121072826 43 175 3.0 8.0 0.00 0.00 0.00 67 1019.5
20171121072331 43 173 3.0 8.0 0.00 0.00 0.00 66 1019.4
20171121071823 43 190 0.0 8.0 0.00 0.00 0.00 64 1019.4
20171121071323 43 167 4.0 9.0 0.00 0.00 0.00 64 1019.5
20171121070828 43 203 4.0 13.0 0.00 0.00 0.00 63 1019.5
20171121070341 43 199 2.0 13.0 0.00 0.00 0.00 62 1019.5
20171121065837 43 180 6.0 12.0 0.00 0.00 0.00 62 1019.4
20171121065336 43 188 5.0 13.0 0.00 0.00 0.00 62 1019.4
20171121064824 44 218 4.0 13.0 0.00 0.00 0.00 61 1019.4
20171121064324 43 229 6.0 12.0 0.00 0.00 0.00 62 1019.4
20171121063835 43 182 5.0 11.0 0.00 0.00 0.00 61 1019.4
20171121063327 43 197 4.0 12.0 0.00 0.00 0.00 61 1019.2
20171121062831 43 161 6.0 12.0 0.00 0.00 0.00 61 1019.3
20171121062345 43 215 5.0 12.0 0.00 0.00 0.00 61 1019.2
20171121061832 43 169 5.0 9.0 0.00 0.00 0.00 61 1019.2
20171121061338 43 179 4.0 10.0 0.00 0.00 0.00 60 1019.2
20171121060825 43 200 5.0 10.0 0.00 0.00 0.00 60 1019.2
20171121060329 43 190 4.0 11.0 0.00 0.00 0.00 61 1019.1
20171121055846 43 188 4.0 11.0 0.00 0.00 0.00 61 1019.1
20171121055333 43 179 5.0 10.0 0.00 0.00 0.00 61 1019.2
20171121054835 43 178 4.0 10.0 0.00 0.00 0.00 60 1019.2
20171121054328 43 215 3.0 9.0 0.00 0.00 0.00 60 1019.1
20171121053828 43 207 4.0 11.0 0.00 0.00 0.00 60 1019.2
20171121053329 43 165 7.0 11.0 0.00 0.00 0.00 60 1019.3
20171121052823 43 160 6.0 10.0 0.00 0.00 0.00 60 1019.3
20171121052329 43 182 5.0 12.0 0.00 0.00 0.00 61 1019.2
20171121051837 43 210 6.0 13.0 0.00 0.00 0.00 60 1019.1
20171121051345 43 197 6.0 13.0 0.00 0.00 0.00 60 1019.0
20171121050846 43 190 5.0 12.0 0.00 0.00 0.00 60 1019.0
20171121050330 43 207 6.0 12.0 0.00 0.00 0.00 60 1019.0
20171121045823 43 191 5.0 14.0 0.00 0.00 0.00 59 1018.9
20171121045327 43 196 6.0 15.0 0.00 0.00 0.00 60 1019.0
20171121044836 43 198 7.0 15.0 0.00 0.00 0.00 60 1018.9
20171121044322 43 216 7.0 11.0 0.00 0.00 0.00 60 1019.0
20171121043827 43 199 4.0 14.0 0.00 0.00 0.00 60 1019.2
20171121043335 43 179 4.0 15.0 0.00 0.00 0.00 60 1019.1
20171121042823 43 217 4.0 15.0 0.00 0.00 0.00 59 1019.2
20171121042342 43 192 4.0 10.0 0.00 0.00 0.00 61 1019.1
20171121041827 43 184 7.0 14.0 0.00 0.00 0.00 60 1019.0
20171121041334 43 232 8.0 14.0 0.00 0.00 0.00 60 1018.9
20171121040839 43 227 7.0 14.0 0.00 0.00 0.00 60 1018.8
20171121040331 43 187 5.0 14.0 0.00 0.00 0.00 60 1018.8
20171121035840 43 215 6.0 13.0 0.00 0.00 0.00 60 1018.8
20171121035340 43 193 7.0 12.0 0.00 0.00 0.00 61 1018.7
20171121034831 43 184 7.0 12.0 0.00 0.00 0.00 60 1018.8
20171121034337 44 175 6.0 12.0 0.00 0.00 0.00 60 1018.7
20171121033833 44 157 4.0 13.0 0.00 0.00 0.00 60 1018.7
20171121033337 44 181 8.0 14.0 0.00 0.00 0.00 60 1018.7
20171121032830 44 196 3.0 11.0 0.00 0.00 0.00 60 1018.6
20171121032343 44 211 7.0 19.0 0.00 0.00 0.00 59 1018.5
20171121031836 44 178 6.0 19.0 0.00 0.00 0.00 60 1018.5
20171121031336 44 220 6.0 16.0 0.00 0.00 0.00 60 1018.5
20171121030835 44 181 5.0 16.0 0.00 0.00 0.00 59 1018.4
20171121030338 44 190 7.0 15.0 0.00 0.00 0.00 59 1018.3
20171121025837 44 180 6.0 15.0 0.00 0.00 0.00 60 1018.3
20171121025331 44 217 5.0 14.0 0.00 0.00 0.00 60 1018.1
20171121024846 44 205 4.0 13.0 0.00 0.00 0.00 60 1018.1
20171121024334 44 178 5.0 12.0 0.00 0.00 0.00 60 1018.0
20171121023828 44 207 3.0 15.0 0.00 0.00 0.00 59 1017.9
20171121023326 43 202 9.0 15.0 0.00 0.00 0.00 58 1017.9
20171121022834 43 196 2.0 12.0 0.00 0.00 0.00 59 1018.0
20171121022344 43 198 5.0 13.0 0.00 0.00 0.00 59 1018.0
20171121021838 43 198 5.0 10.0 0.00 0.00 0.00 59 1017.8
20171121021330 43 192 2.0 10.0 0.00 0.00 0.00 60 1017.8
20171121020836 43 181 5.0 14.0 0.00 0.00 0.00 60 1017.7
20171121020335 43 229 4.0 14.0 0.00 0.00 0.00 60 1017.8
20171121015837 43 207 6.0 14.0 0.00 0.00 0.00 59 1017.7
20171121015331 43 188 2.0 16.0 0.00 0.00 0.00 59 1017.6
20171121014823 43 205 9.0 16.0 0.00 0.00 0.00 60 1017.5
20171121014328 42 219 5.0 12.0 0.00 0.00 0.00 60 1017.4
20171121013838 42 192 5.0 12.0 0.00 0.00 0.00 59 1017.5